AirNav   Everest Fuels
 
 974 users online  

84KS St Mary's Airpark
St. Mary'S, Kansas, USA

GOING TO ST. MARY'S?


FAA INFORMATION EFFECTIVE 09 SEPTEMBER 2021

Location

FAA Identifier: 84KS
Lat/Long: 39-16-16.3250N 096-03-41.7250W
39-16.272083N 096-03.695417W
39.2712014,-96.0615903
(estimated)
Elevation: 1220 ft. / 372 m (estimated)
From city: 4 miles N of ST. MARY'S, KS
Time zone: UTC -5 (UTC -6 during Standard Time)
Zip code: 66422

Airport Operations

Airport use: Private use. Permission required prior to landing
Activation date: 05/2006
Control tower: no
ARTCC: KANSAS CITY CENTER
FSS: WICHITA FLIGHT SERVICE STATION
Attendance: UNATNDD
Wind indicator: yes
Segmented circle: no

Nearby radio navigation aids

VOR radial/distance  VOR name  Freq  Var
TOPr284/25.1TOPEKA VORTAC117.8005E
MHKr071/29.2MANHATTAN VOR/DME110.2004E

Airport Services

Runway Information

Runway 18/36

Dimensions: 2514 x 60 ft. / 766 x 18 m
Surface: turf/gravel, in fair condition
UNEVEN SFC; LINE OF SIGHT OBSTRUCTED BETWEEN RY ENDS.
RUNWAY 18  RUNWAY 36
Latitude: 39-16.479000N39-16.065167N
Longitude: 096-03.690500W096-03.700333W
Elevation: 1217.0 ft.1212.0 ft.
Traffic pattern: leftright
Runway heading: 181 true001 true
Obstructions: 22 ft. tree, 299 ft. from runway, 75 ft. right of centerline, 13:1 slope to clear30 ft. tree, 1080 ft. from runway, 104 ft. right of centerline, 36:1 slope to clear

Airport Ownership and Management from official FAA records

Ownership: Privately-owned
Owner: ST MARY'S AIRPARK
110 W. BERTRAND
SAINT MARYS, KS 66536
Phone 785-437-2789
Manager: DAVE PLFUM
110 W. BERTRAND
SAINT MARYS, KS 66536
Phone 801-598-6221

Airport Operational Statistics

Aircraft operations: avg 46/month *
45% military
36% transient general aviation
18% local general aviation
* for 12-month period ending 30 September 2008

Additional Remarks

ALL TRAFFIC REMAIN EAST OF RWY.
440 FT TWR, 3 NM SOUTH & 680 FT SMOKE STACKS 3.2 NM WNW OF ARPT.
168 FT TWR 1.2 NM SSW OF RWY 36.
NUMEROUS SMALL TREES ALONG EAST EDGE OF RWY IN PRIMARY SFC.
FOR CD CTC KANSAS CITY ARTCC AT 913-254-8508.

Instrument Procedures

There are no published instrument procedures at 84KS.

Some nearby airports with instrument procedures:

KTOP - Philip Billard Municipal Airport (24 nm SE)
KFOE - Topeka Regional Airport (27 nm SE)
KMHK - Manhattan Regional Airport (29 nm W)
KFRI - Marshall Army Airfield (35 nm W)
3JC - Freeman Field Airport (39 nm W)
 
Loc | Ops | Rwys | IFR | FBO | Links
Com | Nav | Svcs | Stats | Notes
Area around 84KS (St Mary's Airpark)
 
Road maps at: MapQuest Bing Google
 
Aerial photo
WARNING: Photo may not be current or correct
Aerial photo of 84KS (St Mary's Airpark)
Photo by Kim Pedersen

Do you have a better or more recent aerial photo of St Mary's Airpark that you would like to share? If so, please send us your photo.

 
Sectional chart

 
Airport distance calculator
Flying to St Mary's Airpark? Find the distance to fly.

From to 84KS

Sunrise and sunset
Times for 24-Sep-2021
 Local
(UTC-5)
 Zulu
(UTC)
Morning civil twilight06:4811:48
Sunrise07:1512:15
Sunset19:1800:18
Evening civil twilight19:4500:45

Current date and time
Zulu (UTC)  24-Sep-2021 22:38:22
Local (UTC-5)  24-Sep-2021 17:38:22
 
METAR
KTOP 
23nm SE 
242153Z 29006KT 10SM CLR 24/11 A3002 RMK AO2 SLP159 T02440106
KFOE 
28nm SE 
242153Z 34007KT 10SM CLR 24/11 A3002 RMK AO2 SLP158 T02390111
KMHK 
30nm W 
242152Z 36009G14KT 10SM CLR 25/09 A3003 RMK AO2 SLP162 T02500094
KFRI 
36nm SW 
242156Z AUTO 03011KT 10SM FEW160 25/11 A3003 RMK AO2 SLP162 T02470113
KLWC 
42nm E 
242152Z AUTO 33010KT 10SM CLR 24/12 A3000 RMK AO1 SLP154 T02390122
KMYZ 
44nm NW 
242215Z AUTO 33006KT 10SM SCT110 20/11 A3007 RMK AO2
TAF
KTOP 
23nm SE 
241731Z 2418/2518 27011G21KT P6SM BKN250 FM242100 34010KT P6SM BKN120 FM250100 34004KT P6SM SCT150
KFOE 
28nm SE 
241731Z 2418/2518 27012G22KT P6SM BKN250 FM242100 34010KT P6SM BKN120 FM250100 34005KT P6SM SCT150
NOTAMs
Click for the latest NOTAMs
NOTAMs are issued by the DoD/FAA and will open in a separate window not controlled by AirNav.

 

 
 

Would you like to see your business listed on this page?

 If your business provides an interesting product or service to pilots, flight crews, aircraft, or users of the St Mary's Airpark, you should consider listing it here.  To start the listing process, click on the button below
 
Add a business
 

Other Pages about St Mary's Airpark

Update a link
 
Copyright © AirNav, LLC. All rights reserved. Privacy Policy  Contact